Location: York
(31.8935°S, 116.7682°E)
Time: 23:43:28
(UTC+08:00)

ISS - Visible Passes

Search period start: 15 May 2021 00:00
Search period end: 25 May 2021 00:00
Orbit: 417 x 422 km, 51.6° (Epoch: 15 May)

Date Brightness Start Highest point End Pass type
(mag) Time Alt. Az. Time Alt. Az. Time Alt. Az.
18 May -0.6 06:16:40 10° N 06:19:06 18° NE 06:21:32 10° E visible
20 May -3.4 06:17:21 10° NW 06:20:44 72° NE 06:24:10 10° SE visible
21 May -2.1 05:30:13 10° NNW 05:33:21 35° NE 05:36:31 10° ESE visible
22 May -1.1 04:45:52 18° NE 04:46:00 19° NE 04:48:28 10° E visible
22 May -2.8 06:19:32 10° WNW 06:22:38 31° SW 06:25:44 10° SSE visible
23 May -3.7 05:34:48 54° WSW 05:35:06 57° SW 05:38:30 10° SE visible
24 May -1.0 04:50:16 16° SE 04:50:16 16° SE 04:51:03 10° SE visible
24 May -1.6 06:23:17 10° WSW 06:24:47 12° SSW 06:26:19 10° S visible
